DELTA 1 DEB, 18906

Orbit data source: Space-Track

DELTA 1 DEB, 18906 is space debris in SSO originally from a launch on Tue, 06 Nov 1973 UTC launched from the Air Force Western Test Range (AFWTR). Debris objects in space refer to the collection of defunct objects orbiting the Earth. Examples of debris include non-operational satellites, rocket bodies, and fragments generated from explosions, collisions, or faulty payload assembly.

Loading next visibility...
Identifier
18906, 1973-086HB
Orbit
SSO
Country
Flag of USUS
Related business
Manufacturer
Unknown
Mission
Spacecraft
Bus & Motor
Unknown
Mass
Unknown
Launch date (UTC)
1973-11-06 (52 years ago)
Launch vehicle
Unknown
Launch site
Air Force Western Test Range (AFWTR)
Object type
Payload
Rocket body
Debris
Shape & HBR
Unknown shape, 0.1 m
Radar Cross Section
Small (<0.1 m²)

Expand to show TLE details & history
Last TLE update: 11 hours ago

TLE from 11 hours ago
0 DELTA 1 DEB
1 18906U 73086HB  26033.57459655 -.00000025  00000-0  14090-3 0  9993
2 18906 102.2804 266.9230 0089058 356.4235  33.0721 12.55920360755162
Epoch: 2026-02-02T13:47Z
TLE epoch observation values (Epoch: 2026-02-02T13:47:25.141Z)
Latitude
29.34959°
Longitude
-79.69539°
Altitude
1,385.01 km
Speed
7.196 km/s
True Right ascension
17h 19m 42s
True Declination
29° 12' 53"
Sunlit
Object was in daylight at epoch
Visualization orbit readout
Latitude
Unknown
Longitude
Unknown
Altitude
Unknown
Speed
Unknown
Apparent Right ascension
Unknown
Apparent Declination
Unknown
Sunlit
N/A
Visualization observer readout
Local Sidereal Time
02:10:32
Azimuth
Unknown
Elevation
Unknown
Doppler factor
Unknown
Orbital elements
Apogee altitude
1,507.003 km
Perigee altitude
1,367.796 km
Semi-major axis
7,815.537 km
Eccentricity
0.00891
Inclination
102.2804°
RAAN
266.923°
Arg. of periapsis
356.4235°
True anomaly
33.63423°
Mean anomaly
33.0721°
Eccentric anomaly
33.35264°
Mean motion
3.14127 °/min
Orbital period
114.6 mins
BSTAR
0.0001409
Loading maneuver chart data...
Computing Atmospheric mass density...
Loading historical data...
Loading historical data...
Loading historical data...
Loading historical data...
Loading historical data...
Loading historical data...
Loading historical data...

Documentation

Showing up to 5 results
|